User: anonymous   Login
Location: Unspecified
(0.0000°N, 0.0000°E)
Time: 06:47:20
(UTC+02:00)
Language:

Ariane H10 - Orbit

View from above orbital plane
View from above orbital plane
View from above satellite
View from above satellite

Ground track
Ground track

The orbit data is extracted from the following two-line orbital elements,

1 19122U 88040B   17206.25025394 -.00000141 +00000-0 +13505-3 0  9995
2 19122 007.0523 156.3822 7130904 167.6412 229.7308 02.33364815197836
Epoch (UTC): 25 July 2017 06:00:21
Eccentricity: 0.7130904
inclination: 7.0523°
perigee height: 510 km
apogee height: 34751 km
right ascension of ascending node: 156.3822°
argument of perigee: 167.6412°
revolutions per day: 2.33364815
mean anomaly at epoch: 229.7308°
orbit number at epoch: 19783

The dashed part of the orbit path shows where the satellite is in the earth's shadow,  

DLR